TimeCST,TemperatureF,Dew PointF,Humidity,Sea Level PressureIn,VisibilityMPH,Wind Direction,Wind SpeedMPH,Gust SpeedMPH,PrecipitationIn,Events,Conditions,WindDirDegrees,DateUTC
12:53 AM,30.0,26.1,85,30.32,10.0,Calm,Calm,-,N/A,,Clear,0,2013-02-18 06:53:00
1:53 AM,28.9,25.0,85,30.31,10.0,Calm,Calm,-,N/A,,Clear,0,2013-02-18 07:53:00
2:53 AM,28.9,26.1,89,30.30,10.0,Calm,Calm,-,N/A,,Clear,0,2013-02-18 08:53:00
3:53 AM,28.0,25.0,88,30.30,10.0,Calm,Calm,-,N/A,,Clear,0,2013-02-18 09:53:00
4:53 AM,28.0,25.0,88,30.31,10.0,Calm,Calm,-,N/A,,Clear,0,2013-02-18 10:53:00
5:53 AM,28.0,24.1,85,30.32,10.0,Calm,Calm,-,N/A,,Clear,0,2013-02-18 11:53:00
6:53 AM,28.9,27.0,92,30.34,10.0,Calm,Calm,-,N/A,,Clear,0,2013-02-18 12:53:00
7:53 AM,39.0,33.1,79,30.35,10.0,Calm,Calm,-,N/A,,Clear,0,2013-02-18 13:53:00
8:53 AM,48.9,30.0,48,30.35,10.0,South,6.9,-,N/A,,Clear,170,2013-02-18 14:53:00
9:53 AM,55.0,25.0,31,30.35,10.0,South,9.2,-,N/A,,Clear,170,2013-02-18 15:53:00
10:06 AM,55.4,26.6,33,30.35,10.0,South,8.1,-,N/A,,Partly Cloudy,180,2013-02-18 16:06:00
10:53 AM,57.9,25.0,28,30.35,10.0,SSE,9.2,-,N/A,,Clear,160,2013-02-18 16:53:00
11:53 AM,59.0,27.0,29,30.32,10.0,SSE,6.9,-,N/A,,Clear,150,2013-02-18 17:53:00
12:53 PM,60.1,27.0,28,30.27,10.0,Variable,6.9,16.1,N/A,,Clear,0,2013-02-18 18:53:00
1:53 PM,61.0,28.9,30,30.26,10.0,SSE,9.2,-,N/A,,Clear,150,2013-02-18 19:53:00
2:53 PM,61.0,30.0,31,30.24,10.0,Variable,5.8,19.6,N/A,,Clear,0,2013-02-18 20:53:00
3:53 PM,60.1,30.9,33,30.22,10.0,South,10.4,18.4,N/A,,Clear,180,2013-02-18 21:53:00
4:53 PM,60.1,30.0,32,30.19,10.0,SSE,9.2,-,N/A,,Clear,160,2013-02-18 22:53:00
5:53 PM,55.9,30.9,39,30.19,10.0,SE,4.6,-,N/A,,Clear,140,2013-02-18 23:53:00
6:53 PM,54.0,35.1,49,30.18,10.0,South,6.9,-,N/A,,Scattered Clouds,190,2013-02-19 00:53:00
7:53 PM,51.1,35.1,54,30.19,10.0,South,5.8,-,N/A,,Clear,170,2013-02-19 01:53:00
8:53 PM,48.0,36.0,63,30.19,10.0,South,3.5,-,N/A,,Clear,180,2013-02-19 02:53:00
9:53 PM,48.9,33.1,54,30.16,10.0,South,6.9,-,N/A,,Overcast,170,2013-02-19 03:53:00
10:53 PM,48.0,33.1,56,30.14,10.0,Variable,5.8,-,N/A,,Clear,0,2013-02-19 04:53:00
11:53 PM,46.9,34.0,61,30.11,10.0,South,4.6,-,N/A,,Clear,170,2013-02-19 05:53:00